• In Hungary
  • List of Countries
  • For 7 days
  • Water Temperature
  • Satellite Maps
  • Weather Map
  • News
  • Weather Widgets
  • user-avatar
    Login

    Hourly Weather Asadabad

    Today, 23 February, Friday

    Time Temperature Precipitation Wind Pressure Humidity
    00:00 +9°C° 0 mm 3 mps 657 mmHg 45%
    01:00 +9°C° 0 mm 3 mps 657 mmHg 45%
    02:00 +8°C° 0 mm 3 mps 657 mmHg 44%
    03:00 +8°C° 0 mm 3 mps 657 mmHg 44%
    04:00 +8°C° 0 mm 3 mps 657 mmHg 43%
    05:00 +7°C° 0 mm 3 mps 657 mmHg 43%
    06:00 +8°C° 0 mm 3 mps 657 mmHg 41%
    07:00 +8°C° 0 mm 3 mps 657 mmHg 40%
    08:00 +9°C° 0 mm 3 mps 657 mmHg 39%
    09:00 +12°C° 0 mm 2 mps 657 mmHg 36%
    10:00 +14°C° 0 mm 2 mps 658 mmHg 33%
    11:00 +16°C° 0 mm 1 mps 657 mmHg 30%
    12:00 +16°C° 0 mm 1 mps 657 mmHg 31%
    13:00 +16°C° 0 mm 1 mps 657 mmHg 31%
    14:00 +18°C° 0 mm 1 mps 657 mmHg 32%
    15:00 +16°C° 0 mm 2 mps 657 mmHg 34%
    16:00 +16°C° 0 mm 2 mps 656 mmHg 36%
    17:00 +15°C° 0 mm 2 mps 656 mmHg 40%
    18:00 +14°C° 0.1 mm 2 mps 656 mmHg 43%
    19:00 +14°C° 0.1 mm 2 mps 656 mmHg 46%
    20:00 +12°C° 0.1 mm 3 mps 657 mmHg 49%
    21:00 +12°C° 0.4 mm 2 mps 657 mmHg 54%
    22:00 +10°C° 0.4 mm 2 mps 657 mmHg 58%
    23:00 +10°C° 0.4 mm 2 mps 657 mmHg 63%

    Tomorrow, 24 February, Saturday

    Time Temperature Precipitation Wind Pressure Humidity
    00:00 +9°C° 0.8 mm 2 mps 657 mmHg 66%
    01:00 +9°C° 0.8 mm 2 mps 657 mmHg 70%
    02:00 +8°C° 0.8 mm 2 mps 657 mmHg 74%
    03:00 +8°C° 0.7 mm 2 mps 656 mmHg 75%
    04:00 +8°C° 0.7 mm 2 mps 656 mmHg 77%
    05:00 +9°C° 0.7 mm 1 mps 656 mmHg 78%
    06:00 +9°C° 0.4 mm 1 mps 657 mmHg 78%
    07:00 +9°C° 0.4 mm 1 mps 657 mmHg 77%
    08:00 +9°C° 0.4 mm 1 mps 657 mmHg 76%
    09:00 +10°C° 0.2 mm 1 mps 657 mmHg 74%
    10:00 +10°C° 0.2 mm 1 mps 657 mmHg 71%
    11:00 +11°C° 0.2 mm 1 mps 658 mmHg 68%
    12:00 +11°C° 0.3 mm 1 mps 657 mmHg 67%
    13:00 +12°C° 0.3 mm 2 mps 657 mmHg 65%
    14:00 +12°C° 0.3 mm 2 mps 657 mmHg 64%
    15:00 +12°C° 0.2 mm 2 mps 657 mmHg 65%
    16:00 +12°C° 0.2 mm 2 mps 657 mmHg 65%
    17:00 +12°C° 0.2 mm 2 mps 657 mmHg 66%
    18:00 +11°C° 0.2 mm 1 mps 657 mmHg 69%
    19:00 +11°C° 0.2 mm 1 mps 658 mmHg 71%
    20:00 +11°C° 0.2 mm 1 mps 658 mmHg 73%
    21:00 +10°C° 0.1 mm 1 mps 658 mmHg 73%
    22:00 +10°C° 0.1 mm 1 mps 658 mmHg 73%
    23:00 +10°C° 0.1 mm 1 mps 658 mmHg 73%

    Day after tomorrow, 25 February, Sunday

    Time Temperature Precipitation Wind Pressure Humidity
    00:00 +9°C° 0 mm 1 mps 658 mmHg 72%
    01:00 +8°C° 0 mm 1 mps 658 mmHg 71%
    02:00 +8°C° 0 mm 1 mps 658 mmHg 69%
    03:00 +7°C° 0 mm 2 mps 658 mmHg 67%
    04:00 +7°C° 0 mm 2 mps 659 mmHg 65%
    05:00 +6°C° 0 mm 2 mps 659 mmHg 63%
    06:00 +7°C° 0 mm 2 mps 659 mmHg 60%
    07:00 +8°C° 0 mm 2 mps 660 mmHg 57%
    08:00 +8°C° 0 mm 2 mps 660 mmHg 53%
    09:00 +10°C° 0 mm 2 mps 661 mmHg 49%
    10:00 +13°C° 0 mm 1 mps 661 mmHg 45%
    11:00 +14°C° 0 mm 1 mps 661 mmHg 42%
    12:00 +15°C° 0 mm 1 mps 661 mmHg 41%
    13:00 +16°C° 0 mm 1 mps 661 mmHg 41%
    14:00 +16°C° 0 mm 2 mps 660 mmHg 40%
    15:00 +16°C° 0 mm 1 mps 660 mmHg 41%
    16:00 +16°C° 0 mm 1 mps 660 mmHg 42%
    17:00 +16°C° 0 mm 1 mps 660 mmHg 43%
    18:00 +15°C° 0 mm 1 mps 660 mmHg 46%
    19:00 +14°C° 0 mm 1 mps 660 mmHg 48%
    20:00 +13°C° 0 mm 2 mps 660 mmHg 51%
    21:00 +12°C° 0 mm 2 mps 660 mmHg 50%
    22:00 +12°C° 0 mm 2 mps 660 mmHg 50%
    23:00 +12°C° 0 mm 2 mps 660 mmHg 49%

    26 February, Monday

    Time Temperature Precipitation Wind Pressure Humidity
    00:00 +12°C° 0 mm 2 mps 660 mmHg 49%
    01:00 +12°C° 0 mm 2 mps 659 mmHg 49%
    02:00 +12°C° 0 mm 2 mps 659 mmHg 48%
    03:00 +12°C° 0 mm 2 mps 659 mmHg 48%
    04:00 +10°C° 0 mm 2 mps 658 mmHg 48%
    05:00 +10°C° 0 mm 3 mps 658 mmHg 48%
    06:00 +11°C° 0 mm 3 mps 658 mmHg 48%
    07:00 +12°C° 0 mm 2 mps 659 mmHg 47%
    08:00 +13°C° 0 mm 2 mps 659 mmHg 46%
    09:00 +15°C° 0 mm 2 mps 659 mmHg 42%
    10:00 +16°C° 0 mm 2 mps 660 mmHg 38%
    11:00 +18°C° 0 mm 2 mps 660 mmHg 33%
    12:00 +18°C° 0 mm 2 mps 660 mmHg 33%
    13:00 +19°C° 0 mm 2 mps 659 mmHg 33%
    14:00 +20°C° 0 mm 1 mps 659 mmHg 32%
    15:00 +20°C° 0.1 mm 1 mps 659 mmHg 35%
    16:00 +18°C° 0.1 mm 2 mps 658 mmHg 37%
    17:00 +18°C° 0.1 mm 2 mps 658 mmHg 40%
    18:00 +17°C° 0.1 mm 2 mps 658 mmHg 43%
    19:00 +16°C° 0.1 mm 2 mps 658 mmHg 46%
    20:00 +15°C° 0.1 mm 2 mps 659 mmHg 50%
    21:00 +15°C° 0.1 mm 2 mps 659 mmHg 51%
    22:00 +15°C° 0.1 mm 2 mps 659 mmHg 52%
    23:00 +14°C° 0.1 mm 2 mps 659 mmHg 54%

    27 February, Tuesday

    Time Temperature Precipitation Wind Pressure Humidity
    00:00 +14°C° 0.1 mm 2 mps 659 mmHg 54%
    01:00 +14°C° 0.1 mm 2 mps 659 mmHg 55%
    02:00 +14°C° 0.1 mm 2 mps 658 mmHg 56%
    03:00 +14°C° 0.2 mm 2 mps 658 mmHg 57%
    04:00 +13°C° 0.2 mm 2 mps 658 mmHg 59%
    05:00 +13°C° 0.2 mm 2 mps 658 mmHg 60%
    06:00 +13°C° 0.3 mm 2 mps 658 mmHg 61%
    07:00 +13°C° 0.3 mm 2 mps 658 mmHg 62%
    08:00 +13°C° 0.3 mm 2 mps 659 mmHg 63%
    09:00 +14°C° 0.3 mm 2 mps 659 mmHg 60%
    10:00 +15°C° 0.3 mm 2 mps 660 mmHg 57%
    11:00 +16°C° 0.3 mm 2 mps 660 mmHg 55%
    12:00 +17°C° 0.1 mm 2 mps 660 mmHg 53%
    13:00 +17°C° 0.1 mm 2 mps 659 mmHg 50%
    14:00 +18°C° 0.1 mm 2 mps 659 mmHg 48%
    15:00 +18°C° 0 mm 2 mps 659 mmHg 49%
    16:00 +18°C° 0 mm 2 mps 659 mmHg 49%
    17:00 +18°C° 0 mm 2 mps 658 mmHg 49%
    18:00 +17°C° 0 mm 2 mps 659 mmHg 52%
    19:00 +16°C° 0 mm 2 mps 659 mmHg 55%
    20:00 +14°C° 0 mm 2 mps 659 mmHg 58%
    21:00 +14°C° 0.1 mm 2 mps 659 mmHg 58%
    22:00 +14°C° 0.1 mm 2 mps 659 mmHg 57%
    23:00 +14°C° 0.1 mm 2 mps 659 mmHg 56%

    28 February, Wednesday

    Time Temperature Precipitation Wind Pressure Humidity
    00:00 +13°C° 0.1 mm 2 mps 659 mmHg 56%
    01:00 +13°C° 0.1 mm 2 mps 658 mmHg 55%
    02:00 +12°C° 0.1 mm 3 mps 658 mmHg 55%
    03:00 +11°C° 0.1 mm 3 mps 658 mmHg 54%
    04:00 +11°C° 0.1 mm 3 mps 658 mmHg 54%
    05:00 +11°C° 0.1 mm 3 mps 657 mmHg 53%
    06:00 +11°C° 0 mm 3 mps 658 mmHg 52%
    07:00 +12°C° 0 mm 3 mps 658 mmHg 50%
    08:00 +12°C° 0 mm 3 mps 658 mmHg 48%
    09:00 +15°C° 0 mm 2 mps 659 mmHg 45%
    10:00 +16°C° 0 mm 2 mps 659 mmHg 41%
    11:00 +18°C° 0 mm 2 mps 659 mmHg 38%
    12:00 +18°C° 0 mm 2 mps 659 mmHg 38%
    13:00 +19°C° 0 mm 2 mps 659 mmHg 37%
    14:00 +20°C° 0 mm 2 mps 658 mmHg 37%
    15:00 +19°C° 0.1 mm 2 mps 658 mmHg 38%
    16:00 +19°C° 0.1 mm 2 mps 658 mmHg 39%
    17:00 +20°C° 0.1 mm 1 mps 658 mmHg 40%
    18:00 +18°C° 0.1 mm 2 mps 658 mmHg 43%
    19:00 +16°C° 0.1 mm 2 mps 658 mmHg 46%
    20:00 +15°C° 0.1 mm 2 mps 658 mmHg 50%
    21:00 +15°C° 0.2 mm 2 mps 658 mmHg 50%
    22:00 +14°C° 0.2 mm 2 mps 658 mmHg 50%
    23:00 +14°C° 0.2 mm 2 mps 658 mmHg 50%
    Show more